Temp
11 11 10 10 10 10 10 10 10 10 11 12 13 14 16 17 18 18 19 19 19 20 20 21 21 21 21 22 22 22 23 23 23 22 22 23 23 24 24 24 24 25 25 25 25 25 25 25 25 26 26 25 25 24 24 24 25 26 27 25 24 24 24 25 26 26 26 25 25 25 26 26 25 25 25 24 25 25 24 24 22 20 19 19 18 18 18 18
11 11 10 10 10 10 10 10 10 10 11 12 13 14 16 17 18 18 19 19 19 20 20 20 21 21 21 22 22 22 23 23 22 21 22 23 23 24 24 24 24 24 25 25 24 24 24 24 25 26 26 25 25 24 25 25 25 26 26 25 24 25 24 24 25 25 26 26 26 26 25 26 26 25 25 25 25 25 24 24 23 21 18 17 17 17 18 18
11 11 10 9 10 10 10 10 10 10 10 12 13 15 16 17 18 18 19 19 20 20 20 20 21 21 21 21 22 22 22 22 22 22 22 22 23 23 24 24 24 24 24 24 24 24 24 25 25 26 26 25 25 25 25 25 25 26 25 25 25 25 25 24 24 25 26 26 26 26 25 26 26 25 25 25 25 24 25 24 23 23 20 17 16 16 16 17
11 11 10 9 10 10 9 9 10 10 10 11 13 14 16 17 18 18 18 19 19 20 20 20 21 21 21 21 22 22 22 22 23 22 22 22 23 23 23 23 24 24 24 24 24 24 25 25 25 26 26 26 26 25 25 25 25 26 25 26 25 25 25 24 24 24 25 25 26 26 26 26 25 24 25 25 25 24 25 25 24 25 23 18 16 15 16 16
11 11 10 10 10 10 9 9 9 9 10 11 12 14 15 16 17 18 18 19 19 19 20 20 21 21 21 21 21 22 22 23 23 21 22 22 23 23 23 23 23 24 24 24 24 25 25 25 25 26 26 25 25 25 26 25 25 26 25 25 25 25 26 24 24 24 24 25 26 26 26 25 25 25 26 25 25 25 25 25 25 26 24 19 16 15 15 15
11 11 11 10 10 9 9 9 9 9 9 10 11 13 14 15 16 17 18 18 19 19 20 20 21 21 21 21 21 22 22 23 22 21 22 22 22 22 23 23 23 24 24 24 24 25 25 25 25 25 25 25 25 25 25 25 25 26 24 24 24 25 25 24 24 24 24 26 26 25 25 25 25 25 25 25 26 26 25 26 26 25 23 19 17 16 15 15
11 11 11 11 10 10 9 9 9 9 9 10 11 12 13 14 16 17 18 18 19 19 20 20 20 20 20 21 21 21 22 22 21 21 22 22 22 22 23 23 23 24 24 24 24 24 25 25 25 25 25 25 25 25 25 25 25 26 25 24 24 24 24 23 23 23 24 25 24 24 24 25 25 25 24 25 26 26 24 23 22 22 20 18 17 16 16 16
11 11 11 11 11 10 9 9 9 9 9 9 10 11 12 14 15 17 17 18 19 19 19 20 20 20 20 20 21 21 22 22 21 21 21 22 22 22 23 23 23 24 24 24 24 24 25 25 25 25 25 25 25 25 25 25 25 25 25 24 23 23 23 23 23 23 24 24 24 24 25 25 24 24 24 25 26 26 23 22 22 20 19 19 18 17 16 16
11 11 11 11 11 10 10 9 9 9 9 9 10 11 11 13 15 16 17 18 19 19 19 19 20 20 20 20 21 22 22 21 21 21 22 22 22 23 23 23 23 23 24 24 24 24 24 25 25 25 25 25 26 25 25 25 25 25 25 24 23 23 22 23 23 24 24 24 24 25 26 24 23 24 25 26 27 26 24 24 24 23 21 20 19 18 17 17
11 11 11 11 10 10 10 10 9 9 9 9 10 10 11 12 14 16 17 18 18 19 19 19 19 20 20 20 21 22 21 20 21 21 22 22 22 23 23 23 23 23 23 24 24 24 24 24 23 24 25 25 25 24 25 25 24 24 24 24 24 23 23 23 23 24 24 24 24 25 25 24 23 24 25 26 26 24 24 25 23 24 24 21 20 18 17 17
11 11 11 11 10 10 10 10 10 9 9 9 9 10 10 12 14 16 17 18 18 19 19 19 19 19 20 20 21 22 20 20 21 21 22 22 23 23 23 23 23 24 24 23 23 23 23 23 22 23 25 25 25 24 24 24 24 24 24 24 23 23 23 23 23 23 24 24 23 24 25 24 23 24 26 26 26 24 24 25 23 24 25 22 21 20 18 17
11 11 11 11 10 10 10 10 10 10 9 9 9 10 11 12 14 16 17 18 18 19 19 19 19 19 19 20 21 21 20 21 21 21 22 22 23 23 23 23 24 24 24 23 23 23 24 24 24 25 25 24 24 24 24 24 24 25 24 24 23 23 24 23 24 23 24 24 23 24 24 24 24 24 26 25 25 25 25 25 24 24 24 23 23 21 19 18
11 11 11 11 10 10 10 10 10 9 8 9 9 10 11 12 14 15 17 17 18 18 18 18 19 19 20 21 21 20 20 21 21 22 22 22 23 23 23 23 24 24 24 24 24 24 24 24 24 25 24 24 24 23 24 24 24 25 24 24 23 22 23 24 23 23 23 23 23 24 23 24 25 25 26 24 24 26 25 25 24 24 24 24 23 23 22 20
11 11 11 10 10 10 10 10 9 9 8 9 9 10 11 13 14 15 16 17 17 18 18 18 19 19 20 21 20 19 20 21 21 22 22 22 22 23 23 23 24 24 24 25 24 24 24 24 24 24 23 24 24 23 24 24 24 24 24 24 23 22 22 23 23 23 23 22 23 24 22 23 27 26 25 23 24 25 25 25 24 24 24 24 24 23 23 21
10 11 10 10 10 10 10 9 9 8 8 9 9 9 11 13 14 15 16 17 17 18 18 18 19 19 21 21 19 19 20 20 21 21 22 22 22 22 23 23 24 24 24 24 24 24 24 25 25 24 23 23 23 24 24 23 24 24 23 22 22 21 22 23 23 23 24 23 22 24 22 23 26 25 24 22 24 25 25 25 25 25 25 24 24 23 23 22
10 10 10 10 10 10 9 9 8 8 8 8 8 10 12 13 14 15 16 16 17 18 18 18 19 19 21 21 19 19 20 20 21 21 22 22 22 23 23 23 23 23 24 24 24 24 24 25 23 23 23 23 23 24 23 22 22 23 22 21 21 22 22 23 23 22 23 23 22 23 22 23 25 25 24 23 23 25 25 25 25 25 25 25 24 23 22 22
10 10 9 9 9 9 9 8 8 8 8 8 9 11 12 13 14 15 16 16 17 18 18 18 19 20 20 19 19 19 20 20 20 21 21 22 22 23 23 23 22 23 23 23 24 24 24 23 22 22 23 23 23 23 22 21 21 22 22 21 22 22 21 22 23 22 22 23 22 22 22 23 25 24 24 24 24 24 25 25 25 25 25 25 25 24 22 22
10 9 9 9 9 9 8 8 8 8 8 9 10 12 12 13 14 15 15 16 17 18 18 18 18 20 20 19 19 20 20 20 20 21 21 22 22 22 23 23 22 22 23 23 23 23 23 22 22 23 23 23 23 23 21 21 21 21 21 21 21 22 22 22 23 22 22 22 22 22 21 22 23 23 23 23 23 23 24 25 25 25 24 24 24 24 23 22
10 9 9 9 9 8 8 7 8 8 9 10 11 12 13 14 14 15 15 16 17 19 19 19 19 19 19 19 19 19 19 20 20 20 21 21 22 22 23 23 22 22 22 22 22 23 23 22 22 22 22 22 23 23 22 23 23 23 22 22 21 22 22 22 23 22 22 22 22 22 22 22 22 22 23 24 23 23 23 23 23 23 23 23 23 23 23 23
10 9 9 9 9 8 8 8 8 8 9 10 11 12 14 15 16 16 16 16 17 19 19 19 19 19 19 19 18 18 19 20 20 20 21 21 22 22 22 22 22 22 22 22 22 22 22 22 21 22 22 23 23 23 24 24 23 23 23 22 22 22 22 22 22 21 21 22 22 22 22 22 22 22 23 23 24 23 23 23 23 22 22 22 23 23 23 23
9 9 9 9 9 8 8 8 8 8 9 10 10 12 16 17 17 17 16 17 17 17 19 19 19 19 19 18 17 18 19 19 19 19 20 21 21 22 22 21 21 21 21 21 22 21 22 21 21 22 23 23 24 24 24 24 24 24 23 22 22 22 22 22 22 21 21 22 22 22 22 22 22 22 23 23 23 24 24 24 23 23 23 23 23 23 23 23
9 9 9 9 9 8 8 8 8 9 9 10 10 12 14 16 17 17 17 19 18 17 18 18 18 18 18 17 18 19 20 19 19 19 20 20 21 21 22 21 21 21 21 21 21 21 21 21 22 23 23 23 23 23 24 24 24 23 22 22 21 22 21 21 21 21 21 22 22 22 21 21 21 21 22 22 22 23 23 23 24 24 24 23 23 23 23 23
9 9 9 8 9 8 8 8 9 9 9 10 11 12 13 15 16 16 18 20 19 18 18 19 19 18 17 18 18 19 20 20 19 19 19 20 20 21 21 21 21 21 21 21 21 20 20 21 22 22 22 23 23 23 24 23 23 23 22 21 21 21 21 21 21 21 21 21 21 21 20 20 21 20 21 21 21 22 23 23 23 23 23 24 23 23 23 24
9 9 9 9 8 8 8 8 9 9 9 10 12 13 14 15 15 16 18 20 19 18 18 18 19 18 18 19 19 19 20 20 20 19 19 20 20 20 21 21 21 20 20 21 21 21 21 21 21 22 23 24 23 22 23 23 22 22 22 21 21 22 21 21 21 21 21 20 20 20 20 20 21 21 23 22 20 20 21 21 22 22 22 23 22 22 23 23
9 9 9 9 8 9 9 9 9 9 10 11 12 13 14 15 15 16 18 20 19 18 17 18 19 19 19 19 19 20 20 20 20 19 19 20 21 21 21 21 21 20 20 21 21 21 21 21 20 22 23 23 23 22 22 22 21 21 21 22 22 22 22 21 21 21 21 20 20 20 20 21 22 23 25 24 22 22 22 22 24 23 22 22 22 22 22 22
9 9 9 9 9 9 9 9 10 10 11 11 13 13 14 15 15 16 19 18 18 17 17 18 19 20 20 19 18 19 21 20 18 18 19 20 20 21 21 21 21 21 20 21 21 21 21 20 20 22 22 22 22 22 21 21 21 21 20 20 21 22 21 21 21 21 21 20 19 19 20 20 21 22 24 25 24 25 24 24 25 23 22 22 22 23 23 23
9 9 9 9 9 9 9 11 11 11 12 13 14 14 14 15 15 17 18 17 17 18 17 17 18 20 20 18 19 20 20 19 18 18 19 19 20 20 20 20 21 21 21 21 20 20 20 20 20 21 21 21 21 21 21 21 21 21 19 19 21 22 21 21 20 20 20 19 19 19 19 19 19 21 22 23 23 23 23 24 25 23 23 23 23 23 23 23
10 9 9 9 10 10 10 11 11 12 13 14 14 14 15 15 15 17 18 16 17 19 18 16 17 19 19 18 19 20 19 19 20 18 17 19 19 20 21 20 21 21 21 21 20 19 19 20 21 20 21 20 20 20 20 21 21 20 18 19 21 21 21 20 20 20 18 19 19 18 19 19 19 21 21 21 21 23 24 24 24 24 24 24 24 25 23 22
10 10 9 9 10 10 10 11 12 12 13 14 14 15 15 15 16 18 18 16 18 19 18 17 17 18 18 17 18 18 17 18 19 17 17 18 19 19 20 20 21 22 21 20 20 19 18 18 19 20 21 20 19 17 17 20 21 19 18 19 20 20 20 20 19 19 19 19 20 19 19 20 20 21 22 21 21 23 25 25 24 24 25 25 25 25 23 22
10 10 10 10 9 10 10 11 12 13 13 14 14 15 16 16 17 17 15 16 19 18 16 16 17 17 17 17 17 18 18 17 17 17 17 19 18 18 19 19 20 21 20 19 19 17 16 16 16 18 19 18 17 16 16 19 20 19 19 20 20 19 19 19 18 19 20 20 20 19 20 20 20 21 21 21 22 24 25 25 25 25 25 24 23 23 23 23
10 10 10 10 10 10 11 11 12 13 13 14 14 15 16 16 16 16 15 17 20 17 15 16 16 16 17 17 17 17 17 16 16 17 18 18 18 18 19 19 19 19 19 19 18 16 16 17 17 17 16 16 17 17 17 17 18 19 20 20 20 19 19 19 18 18 19 20 19 19 19 19 20 20 21 23 24 23 24 27 27 27 26 25 23 22 22 22
11 10 10 10 10 11 11 12 13 13 13 14 14 15 16 16 15 15 16 18 19 17 16 16 16 16 16 17 17 17 17 16 16 17 17 17 17 18 18 19 19 19 18 18 17 17 17 18 17 16 15 16 19 19 17 17 17 19 20 20 20 19 19 19 19 18 19 19 18 18 18 19 20 21 23 24 25 24 24 26 27 26 26 25 24 23 21 20
10 11 10 10 10 11 11 12 13 13 13 14 14 16 16 15 14 16 16 18 18 17 16 16 16 16 16 17 17 16 17 17 16 17 17 17 17 17 18 18 19 19 18 17 17 17 17 17 16 16 16 17 19 19 18 18 18 18 20 20 20 19 18 19 18 18 18 19 18 17 18 19 20 22 24 25 26 25 24 24 26 26 26 26 25 23 21 19
10 10 10 10 10 11 11 12 12 13 13 14 15 16 15 14 15 17 16 17 18 17 17 16 15 16 16 17 16 16 17 16 16 17 17 16 16 16 17 17 17 19 19 17 16 17 18 18 16 17 18 17 18 19 19 18 18 17 18 19 20 19 19 19 19 19 19 19 18 17 19 20 20 22 22 23 24 24 24 24 25 26 26 25 24 23 22 19
10 10 10 10 10 10 11 11 12 13 13 14 15 15 14 14 16 17 16 17 17 17 16 16 15 15 16 16 16 17 17 16 15 16 16 16 16 16 17 17 17 18 19 18 17 16 17 18 17 17 17 17 18 18 18 19 18 17 18 18 19 20 20 20 19 19 19 19 18 18 19 19 20 22 22 22 23 23 24 24 24 25 25 24 24 24 22 20
10 10 10 10 10 10 10 10 11 12 13 14 14 14 14 15 16 17 17 17 17 16 16 15 16 15 15 16 16 16 17 16 16 16 16 16 16 16 16 17 17 18 19 19 18 17 17 18 16 16 16 16 17 18 18 19 19 17 17 18 18 18 20 20 18 17 18 19 19 18 19 19 20 21 22 23 24 24 23 23 24 25 25 24 25 25 22 20
9 9 9 10 10 10 10 10 11 11 12 13 13 14 14 16 17 17 17 18 17 16 16 16 16 16 15 15 15 16 17 17 16 16 16 16 17 17 16 17 18 18 19 20 19 19 19 18 15 15 16 16 15 16 17 18 18 18 17 18 18 18 19 20 19 18 17 18 18 18 19 20 20 21 22 22 23 23 23 24 24 24 24 24 25 25 23 21
9 9 9 10 10 10 10 10 10 11 11 12 13 14 14 15 16 15 15 16 17 17 17 16 16 17 16 15 15 15 16 17 16 16 16 16 17 18 17 18 18 18 19 20 20 20 20 19 16 13 15 15 15 16 17 16 16 17 18 18 19 19 19 19 19 19 18 18 18 19 19 19 19 20 21 22 23 24 24 24 24 25 24 24 25 25 24 21
9 9 10 11 11 11 10 10 10 10 10 11 12 13 13 14 15 13 13 15 16 17 17 17 17 17 16 16 16 15 16 16 15 15 16 16 17 18 18 18 19 18 18 19 19 20 20 20 17 13 13 15 15 16 17 16 16 17 17 17 18 18 19 18 18 19 19 18 18 19 19 19 20 21 22 23 24 24 24 24 24 25 23 23 23 24 25 23
9 9 10 11 11 11 10 10 9 10 9 10 10 11 11 13 14 13 13 14 15 15 16 17 18 17 16 16 16 15 16 16 15 15 16 16 17 17 18 19 19 18 18 18 19 20 19 19 18 14 13 14 15 16 16 16 16 17 17 17 17 17 17 18 18 18 19 19 18 18 19 19 21 21 23 24 24 24 24 23 23 24 22 22 23 23 25 25
9 9 10 10 10 10 10 9 9 9 8 9 9 9 10 11 12 13 13 13 13 14 14 15 16 17 17 16 16 16 15 15 15 15 16 16 17 18 18 19 19 18 18 17 18 19 19 18 17 14 13 14 16 16 16 17 17 17 17 17 17 17 17 17 17 17 18 19 19 19 19 20 21 22 23 25 24 24 23 22 23 23 22 22 23 23 23 24
8 9 10 10 9 10 9 10 9 8 8 9 9 9 10 10 11 12 13 13 13 13 14 14 15 16 17 16 16 16 15 15 15 15 16 16 17 18 18 19 19 18 18 17 17 19 19 18 16 14 14 15 15 14 15 16 17 17 17 17 17 17 17 18 18 17 17 19 19 18 18 20 22 23 24 24 24 24 23 22 24 23 22 22 24 25 23 23
8 9 10 10 9 10 9 10 9 8 8 9 9 9 10 10 11 11 12 12 13 13 13 14 14 15 15 15 16 16 16 16 15 15 16 16 17 18 18 18 18 18 18 18 17 18 19 18 17 16 15 15 15 15 14 15 16 16 16 16 16 17 17 18 18 17 18 18 18 17 17 19 21 22 22 23 23 23 22 22 24 24 23 23 24 24 23 23
8 9 10 9 9 10 10 10 10 8 8 8 9 9 10 10 11 11 11 12 12 12 13 13 14 14 13 14 15 15 16 16 16 16 16 16 16 17 17 18 18 18 18 18 18 18 18 18 17 17 16 15 15 15 14 14 15 16 16 16 16 17 17 17 17 16 17 18 18 17 17 19 21 21 22 23 23 24 23 22 23 24 24 24 23 23 23 23
8 9 9 9 9 9 10 10 10 10 9 9 8 9 9 9 10 11 11 12 12 12 13 13 13 13 13 13 13 14 15 15 16 16 16 16 16 15 15 16 17 18 19 19 19 19 18 17 17 16 16 15 15 15 15 15 14 15 16 16 16 17 17 17 17 16 17 18 17 17 18 19 20 21 22 23 23 24 24 23 23 24 24 23 23 24 23 23
8 8 8 9 9 9 9 10 10 10 9 9 9 9 9 9 9 10 11 11 12 12 12 12 13 13 13 13 13 13 13 14 14 15 15 16 16 14 13 14 16 17 18 18 18 18 18 17 17 17 17 17 17 17 16 15 15 15 16 16 15 16 16 17 17 16 17 17 16 16 18 19 19 20 21 22 22 23 23 23 23 23 23 22 22 22 23 21
7 7 8 8 9 9 9 9 9 10 10 10 10 10 9 9 10 10 10 11 12 12 12 12 12 12 12 12 12 13 13 13 13 13 14 14 14 13 13 13 14 15 15 16 17 17 18 17 17 17 17 18 18 18 17 16 16 16 16 16 15 15 15 16 16 17 17 17 16 17 17 17 18 19 20 21 21 21 22 22 23 22 22 22 21 21 21 20
6 7 8 9 9 9 8 8 9 9 10 10 10 10 10 10 10 10 10 11 11 12 11 11 11 12 12 13 12 12 12 12 12 13 13 13 13 13 14 14 13 13 14 15 15 16 17 17 17 17 16 17 17 17 16 16 16 16 16 16 15 15 15 15 16 17 17 16 16 18 18 17 18 19 19 20 20 21 21 21 21 21 21 21 21 20 20 20
6 6 7 9 9 8 8 9 9 9 9 10 10 10 10 10 10 10 10 10 10 11 11 11 11 11 12 12 12 11 12 12 12 12 13 13 13 13 14 15 13 12 14 15 14 14 16 17 17 16 16 16 16 16 16 15 16 16 15 15 15 15 14 15 16 17 17 16 17 18 18 17 18 19 19 21 20 19 19 19 19 20 20 20 20 20 20 21
6 6 7 8 8 8 8 9 9 9 9 9 9 10 10 10 10 11 11 10 10 10 11 11 11 11 11 12 12 11 12 12 13 13 12 12 13 13 14 14 13 12 13 14 14 14 15 16 15 15 16 16 15 15 15 15 15 15 15 15 15 14 14 14 15 16 16 16 17 17 17 17 18 19 19 20 19 18 18 19 19 19 19 19 19 19 20 20
5 6 7 6 7 8 8 8 9 8 8 9 9 9 10 10 10 11 11 11 11 11 11 11 11 11 11 11 11 12 12 12 13 13 12 12 13 13 13 13 13 13 13 13 13 13 14 14 14 14 15 15 15 14 13 14 14 14 14 15 15 14 13 14 14 15 16 16 16 16 15 16 18 19 19 19 18 18 18 18 18 19 18 18 19 19 19 19
5 5 6 6 6 7 8 8 8 8 8 9 9 9 10 10 11 11 11 11 11 12 11 11 12 11 11 10 11 12 13 13 13 13 13 13 13 13 13 13 14 13 13 12 12 12 13 13 13 13 13 14 15 14 13 14 13 13 14 15 15 14 14 14 14 15 15 15 15 15 16 17 18 18 18 18 18 17 18 18 18 18 18 18 19 19 19 18
Height
775 777 777 778 779 781 783 783 783 783 783 784 784 785 785 786 786 787 788 789 790 790 791 792 792 793 793 793 794 794 794 794 795 795 795 795 795 796 796 797 797 797 798 797 797 798 798 798 797 797 798 800 801 802 803 802 803 807 815 823 828 828 826 821 819 816 816 820 820 818 817 819 822 820 818 819 821 823 824 825 825 826 826 826 826 826 828 832
774 775 776 778 778 779 781 782 783 783 782 783 783 784 784 785 786 786 787 788 789 790 790 791 791 792 792 793 793 793 794 793 794 794 793 794 795 795 796 796 797 797 797 797 797 798 799 799 797 797 800 802 803 803 805 804 804 810 818 824 826 826 823 819 817 814 813 816 818 817 817 818 819 819 818 822 826 825 826 828 827 829 830 830 829 829 830 832
773 774 775 777 777 778 780 781 782 782 781 782 782 783 783 784 785 786 787 788 788 789 789 790 791 791 792 792 792 793 793 793 794 793 792 793 794 795 795 796 797 797 797 797 797 797 798 798 797 798 801 805 804 804 807 806 807 811 817 824 824 820 819 817 816 815 812 812 816 818 817 817 817 817 818 822 826 826 827 827 827 829 830 831 830 830 831 831
772 773 775 776 777 777 778 780 781 781 781 781 781 782 783 783 784 785 786 787 787 788 788 789 790 790 791 791 792 792 791 794 795 792 791 792 793 794 795 796 796 797 797 797 797 797 797 797 797 798 802 807 805 805 808 808 809 811 815 821 820 817 818 817 816 815 813 811 814 816 817 819 818 817 818 821 827 829 825 822 822 821 823 828 830 830 830 831
771 772 774 775 776 776 777 779 780 780 780 780 781 781 782 783 784 785 786 786 787 787 788 788 789 790 791 790 792 791 792 799 796 790 792 792 792 793 794 795 796 796 796 796 797 796 797 796 797 800 804 808 808 808 810 807 807 812 816 817 816 815 817 817 815 814 813 812 813 816 819 819 817 818 818 820 825 825 819 815 814 814 816 822 825 827 829 830
771 772 773 775 775 776 776 778 779 779 780 780 781 781 782 782 783 784 785 786 786 787 787 788 788 789 790 790 791 790 794 800 794 790 792 791 792 793 794 795 795 796 796 796 796 796 797 797 800 804 806 808 810 810 810 807 806 814 818 816 816 814 816 817 815 815 814 813 815 817 817 817 819 820 818 818 820 817 812 810 811 811 812 816 820 824 827 828
770 771 773 774 774 775 776 777 778 779 779 780 780 780 781 782 782 783 784 785 785 786 786 787 788 789 789 790 790 791 794 795 791 790 791 791 793 793 794 795 795 796 796 796 796 797 798 800 802 805 806 809 810 809 808 807 807 813 818 817 817 815 816 817 815 815 814 814 816 816 816 818 819 821 819 817 814 812 811 809 809 809 811 815 819 822 823 823
769 771 772 773 774 774 775 777 778 778 779 780 780 780 781 781 782 782 783 784 784 785 786 786 787 788 789 789 790 793 794 792 790 791 791 791 792 793 794 794 795 796 795 796 796 797 799 801 803 803 808 809 807 808 808 809 811 813 817 817 817 817 817 817 816 816 815 815 816 815 817 818 819 819 819 816 811 809 810 809 809 809 812 815 818 819 821 821
769 770 771 773 773 773 774 776 777 778 779 779 779 780 780 781 781 781 782 783 783 785 785 786 787 787 789 789 790 794 793 789 789 790 791 792 792 793 794 794 795 795 795 796 796 796 799 801 802 801 806 807 804 807 807 811 816 813 814 816 817 818 818 817 817 816 816 815 815 817 818 818 817 818 817 811 807 807 809 809 809 810 813 815 816 817 818 819
768 769 771 772 772 773 774 775 776 777 778 778 779 779 780 780 780 781 781 782 783 784 784 786 786 787 788 788 791 795 791 788 789 790 791 792 792 793 793 793 794 794 795 795 795 796 797 799 799 797 801 803 805 809 808 811 814 811 813 815 816 818 818 817 817 816 816 816 816 818 819 818 816 819 817 808 804 806 808 810 810 810 812 813 814 814 815 816
767 768 770 771 772 772 773 774 775 776 778 778 778 779 779 779 779 780 781 782 782 783 784 785 786 787 788 788 792 794 789 788 790 789 791 792 792 793 793 793 794 794 794 794 795 795 796 797 796 796 801 804 806 809 809 809 810 810 813 817 818 818 818 817 818 818 817 818 817 817 819 818 818 819 813 805 803 805 807 809 810 810 811 811 812 812 813 813
766 767 769 770 771 772 772 773 774 776 777 777 778 778 778 779 779 780 780 781 782 782 784 784 786 787 787 789 791 790 788 789 790 790 791 791 792 792 792 793 793 794 794 794 795 795 796 795 794 798 803 804 808 812 810 808 809 810 812 819 823 821 820 819 818 818 818 819 817 817 822 820 819 816 805 803 804 804 806 808 809 809 809 810 810 810 811 810
765 766 768 769 770 771 772 773 774 775 776 776 777 777 778 778 779 779 780 780 781 782 784 784 786 786 788 790 789 787 788 789 790 790 791 791 792 792 792 793 793 794 794 794 795 795 796 795 795 799 800 803 810 811 808 807 809 812 814 819 826 829 825 819 818 819 818 820 815 819 829 822 814 811 803 804 805 804 807 808 808 809 808 808 808 808 808 807
764 765 767 768 769 770 771 772 773 774 775 776 776 777 777 778 779 779 779 781 781 782 784 784 786 786 788 789 788 787 788 789 790 790 791 791 792 792 793 793 793 794 794 794 795 795 795 795 795 798 800 804 807 807 809 811 812 816 819 821 828 834 829 819 819 820 820 821 816 820 833 823 811 808 804 804 804 805 808 807 808 808 807 807 806 807 806 805
763 765 766 767 768 769 770 771 772 773 774 775 776 777 777 778 778 779 780 781 782 783 784 785 786 787 789 789 787 787 788 789 790 790 791 791 791 792 793 793 794 794 794 795 795 795 795 795 797 801 805 804 805 810 815 818 816 818 825 831 832 833 830 822 819 820 820 821 818 822 832 825 812 807 805 804 803 805 807 807 807 806 805 805 805 804 803 802
763 764 765 766 767 768 769 770 771 773 774 775 776 776 777 778 778 779 780 781 782 783 784 786 786 787 790 790 788 788 789 789 789 790 791 791 791 792 793 793 794 794 795 795 795 795 795 796 800 804 806 807 810 815 821 826 826 823 828 834 833 832 833 828 821 819 819 821 821 823 828 823 813 808 806 806 805 805 807 806 806 805 803 803 802 801 801 800
762 763 764 765 766 766 768 769 771 772 773 775 775 776 777 778 778 779 780 781 782 783 784 786 786 787 790 790 789 789 788 788 789 790 790 791 792 792 793 793 794 794 795 795 795 796 796 799 805 807 807 810 813 816 828 838 836 830 830 832 831 830 834 831 824 820 818 821 824 824 827 822 812 808 807 806 806 806 806 805 803 802 801 800 799 798 798 799
761 762 763 764 765 766 767 768 770 772 773 774 775 776 777 778 779 780 781 782 782 784 786 786 787 792 793 789 788 787 786 787 788 789 790 791 792 792 793 793 794 795 796 798 798 798 800 804 808 811 813 814 814 820 831 836 832 829 831 832 831 829 830 828 823 820 819 823 825 826 829 823 814 810 808 806 805 807 805 803 801 800 799 798 796 796 796 796
760 761 762 763 764 765 766 768 770 771 772 774 775 776 777 779 780 780 781 782 782 784 787 785 785 791 790 785 784 784 785 787 788 789 790 791 792 792 793 794 795 797 801 805 804 802 804 808 813 818 821 818 817 819 823 823 822 823 826 829 830 829 828 826 823 821 820 824 827 826 825 822 816 813 809 804 802 804 804 802 801 799 798 796 795 793 793 794
759 760 762 763 764 764 766 768 769 771 772 773 775 776 777 778 781 783 783 781 780 780 781 780 781 784 783 781 783 784 785 787 789 789 790 790 791 792 793 795 797 800 804 807 807 805 805 814 820 819 819 816 814 814 814 815 817 820 823 825 828 828 828 825 823 821 820 823 824 822 822 820 817 813 807 804 801 801 801 800 799 797 796 795 793 791 790 790
758 760 761 762 764 764 766 767 769 770 771 773 774 774 773 774 777 781 782 782 779 777 778 778 778 780 780 781 782 782 785 789 790 789 790 790 790 794 796 798 803 807 807 806 807 806 808 819 820 814 812 811 809 810 812 813 814 818 822 824 827 828 828 826 824 822 820 824 823 821 822 818 814 812 805 803 802 797 794 795 794 792 792 792 790 789 787 785
757 759 761 762 763 765 766 767 769 770 771 772 772 772 771 770 771 772 775 780 778 777 779 778 779 781 780 781 782 781 784 790 792 791 790 790 792 796 798 800 806 809 807 807 810 813 818 821 815 808 809 809 809 810 811 814 816 820 823 827 829 828 829 828 826 824 822 825 823 821 823 816 808 810 805 801 799 792 788 789 789 788 789 788 786 785 784 783
757 758 761 762 763 765 766 767 769 769 770 771 771 770 769 769 769 769 771 776 779 778 778 779 780 782 783 782 782 782 784 788 792 791 790 791 793 795 798 802 806 808 809 809 812 820 824 818 808 806 808 808 810 812 812 815 819 822 825 829 831 829 830 830 828 826 824 825 824 824 827 818 807 806 802 796 795 789 785 786 786 786 785 782 781 782 782 781
756 758 761 762 764 765 766 768 768 769 769 769 769 769 768 769 769 770 770 774 778 778 778 778 779 780 781 781 780 782 784 785 787 789 789 790 793 795 797 801 805 809 810 809 811 816 817 811 806 807 807 807 812 814 814 818 823 825 825 828 829 827 828 831 829 826 824 827 828 827 827 816 805 804 796 790 795 792 787 786 783 781 781 779 779 780 779 778
756 758 760 761 764 764 766 768 767 768 768 769 769 767 768 769 769 770 771 776 781 780 779 778 777 778 777 778 780 780 782 784 785 786 786 788 791 795 797 797 802 811 811 809 812 815 813 809 807 807 808 809 812 815 816 819 825 828 825 824 824 823 826 829 829 828 829 833 831 830 832 819 804 801 794 788 792 790 786 786 781 777 778 778 779 777 776 776
756 758 759 762 763 764 768 767 766 767 768 768 767 766 768 768 770 769 771 785 788 782 782 780 777 776 773 777 780 779 785 787 785 784 785 788 788 790 797 798 799 807 808 807 812 813 811 809 808 808 810 812 815 818 819 819 827 831 828 826 823 823 826 828 829 832 835 837 833 832 839 833 815 802 794 788 788 786 784 783 777 776 777 777 776 774 773 773
756 758 759 762 763 764 766 764 764 766 766 767 765 767 768 767 770 767 775 800 795 776 778 781 777 773 771 776 776 780 790 788 785 787 786 788 788 788 797 801 800 803 802 806 814 814 811 811 812 812 813 817 819 820 819 818 826 830 828 827 822 821 826 829 831 835 838 838 836 834 838 841 829 809 794 790 790 789 787 782 776 774 775 774 774 771 770 771
756 757 759 761 762 763 764 763 764 764 764 764 764 767 767 767 770 767 782 808 791 766 771 777 773 771 771 775 775 779 785 782 786 792 787 788 790 789 796 800 800 800 798 805 817 817 812 811 812 812 815 819 819 819 818 817 823 828 827 826 823 823 828 830 833 837 842 842 838 837 838 839 826 803 793 795 796 791 784 779 774 771 771 770 770 768 768 769
755 757 758 760 762 763 764 763 763 762 763 763 764 767 766 768 769 769 789 800 775 760 767 770 772 773 773 777 778 780 782 782 786 790 788 789 790 790 795 797 796 798 799 804 811 814 814 814 812 811 813 817 820 823 822 817 820 826 827 826 826 828 830 833 836 838 842 842 836 835 835 834 817 794 791 799 798 789 778 773 772 770 769 768 767 767 766 768
755 756 758 761 763 764 764 763 763 762 763 763 764 766 766 769 771 783 802 790 763 764 771 770 773 774 775 781 784 782 783 787 788 788 790 791 790 791 793 795 795 799 804 806 811 816 817 817 816 814 814 817 821 825 825 820 819 823 825 825 829 834 834 836 840 841 843 838 832 830 828 829 819 797 791 793 787 780 773 771 771 768 767 767 767 768 767 767
754 756 759 760 762 763 763 763 762 761 763 763 764 765 767 772 778 792 799 773 757 769 774 773 775 773 774 778 783 784 785 790 789 788 792 794 795 795 795 798 800 807 813 812 816 821 818 817 817 816 817 819 819 822 825 824 822 822 824 827 833 838 840 842 845 848 848 838 831 831 830 832 823 801 790 784 775 774 772 768 767 766 767 767 768 769 768 768
752 755 758 759 760 761 761 762 761 761 762 762 764 765 769 780 786 787 780 761 759 769 769 771 775 774 775 776 780 784 785 790 790 788 792 796 798 797 797 799 800 810 820 818 819 823 819 817 818 818 818 817 815 822 829 828 827 826 826 831 839 846 850 849 850 853 850 839 834 835 835 832 816 794 784 778 770 771 771 766 764 766 767 766 768 769 769 770
752 753 756 758 759 760 760 761 761 761 762 761 764 765 771 785 786 775 767 760 759 761 760 765 770 772 776 778 782 783 783 788 790 789 791 794 799 799 797 796 794 800 811 817 821 824 822 822 821 820 819 815 811 819 829 830 830 829 826 830 839 851 857 854 855 856 848 837 835 837 835 826 807 787 778 772 766 766 768 768 766 765 765 765 766 767 769 771
752 753 755 757 757 759 759 761 761 761 761 761 764 768 776 784 775 763 763 761 756 757 759 764 769 774 776 776 780 780 782 789 789 788 792 795 801 802 798 798 797 795 802 814 821 822 823 821 818 815 814 812 810 812 816 820 827 829 825 827 831 836 842 844 847 846 838 835 837 839 832 816 800 785 776 772 769 768 767 766 765 762 763 764 765 766 768 770
752 753 755 756 756 757 758 761 761 761 762 761 764 772 777 775 764 758 761 759 756 759 762 764 769 777 779 777 779 776 778 788 790 789 793 795 797 798 796 795 797 795 798 809 816 819 820 814 809 809 807 807 808 809 809 814 826 830 826 828 828 823 823 831 839 837 836 839 838 834 823 805 792 780 773 774 771 768 768 766 766 764 763 765 764 764 767 769
752 753 755 755 755 755 757 760 760 761 762 762 768 773 768 760 754 753 752 751 754 759 766 770 772 778 782 781 781 779 776 782 788 791 794 794 792 793 792 788 789 790 790 797 807 813 817 815 811 810 809 807 807 808 807 809 818 826 828 825 821 818 816 824 839 841 841 840 832 825 814 799 793 781 770 771 769 767 770 768 766 764 763 765 763 761 765 767
753 754 754 754 754 754 756 759 761 763 763 764 767 765 758 752 748 748 747 747 750 754 762 771 772 774 780 782 782 781 777 780 787 789 792 795 790 786 788 785 782 784 782 785 794 797 803 812 814 813 812 811 811 810 809 808 810 820 825 818 814 821 819 821 834 841 844 844 832 822 811 801 802 790 773 772 773 770 770 767 765 764 763 764 761 759 762 764
753 754 755 753 753 754 756 758 761 762 765 768 766 758 755 753 748 750 752 750 749 751 757 766 767 767 773 778 780 779 777 780 787 788 789 794 786 775 780 781 778 780 777 779 788 788 791 804 815 819 817 813 812 812 813 813 812 813 814 811 814 824 827 826 833 836 841 845 830 816 811 804 799 788 775 774 774 769 767 765 764 763 761 761 760 758 760 762
753 754 754 751 751 753 755 758 761 763 767 771 767 759 758 755 752 756 758 753 751 752 755 758 759 764 769 770 774 778 777 778 785 787 785 788 782 770 770 773 773 776 776 778 785 785 787 797 810 820 819 816 815 814 814 815 815 813 813 814 815 818 822 824 827 827 830 838 830 816 810 797 782 777 773 771 768 764 763 763 761 758 758 760 760 758 758 760
753 755 753 749 749 752 754 758 762 765 770 772 769 766 764 759 756 758 757 755 755 755 756 754 753 760 765 766 769 773 775 776 781 783 780 780 778 770 766 766 769 773 774 778 781 783 788 793 804 819 823 819 814 809 806 808 811 813 814 817 817 818 821 821 823 821 819 825 829 825 813 788 770 768 764 761 760 757 758 760 758 757 758 759 759 758 758 758
753 755 752 748 749 751 754 759 763 767 772 773 772 771 769 764 760 759 757 758 759 758 758 757 754 755 759 764 766 768 772 776 779 780 778 776 774 769 763 760 764 770 776 783 784 782 787 793 803 820 823 814 806 801 800 799 800 802 805 808 808 811 818 822 825 822 816 816 819 822 813 782 761 761 756 752 754 752 754 757 755 756 757 758 757 757 758 758
753 754 749 747 748 749 754 760 763 769 772 770 770 770 769 767 764 760 759 759 761 760 760 760 759 756 755 759 761 764 770 774 776 777 774 771 767 763 758 756 758 764 770 779 779 773 778 790 801 812 813 807 803 802 802 799 796 799 801 800 801 804 807 813 819 819 817 814 810 817 814 778 753 755 753 750 752 750 752 754 753 754 757 757 756 754 757 758
752 751 747 746 747 748 754 760 763 769 771 767 766 767 766 766 765 763 761 761 761 762 761 761 760 758 759 759 758 761 764 767 770 771 768 766 763 757 756 755 757 762 765 772 776 772 777 787 795 803 805 803 803 802 802 800 799 801 802 800 802 804 801 803 808 810 813 811 809 820 818 781 755 756 754 752 753 750 752 753 752 754 754 755 755 754 756 757
751 749 747 747 749 749 752 755 757 765 769 767 767 767 765 765 765 763 763 762 761 763 763 762 760 761 763 763 760 760 761 761 763 764 763 764 761 756 756 756 757 760 761 764 767 769 777 785 790 799 806 806 807 808 806 805 804 803 800 799 799 799 801 805 808 811 811 805 803 814 808 778 761 758 753 752 752 750 753 755 753 753 752 753 754 754 755 755
752 752 749 748 748 749 750 749 751 758 763 765 767 767 767 767 764 761 762 761 761 762 763 762 761 762 764 766 765 763 762 761 760 760 760 760 759 759 759 758 756 756 755 756 757 761 771 778 781 792 801 802 802 801 798 800 804 802 796 794 795 795 800 802 805 813 810 799 799 804 791 770 763 760 755 753 753 751 752 752 752 751 751 752 753 753 754 756
753 754 752 750 748 748 748 748 749 753 756 760 763 763 764 766 764 761 762 763 761 761 763 763 763 764 765 767 768 767 765 764 764 763 762 760 758 761 763 760 758 756 755 755 756 760 769 771 771 776 780 779 777 777 779 786 795 796 789 789 793 794 794 797 803 807 799 793 798 795 781 770 766 764 761 756 756 756 754 754 753 753 753 754 755 756 757 759
754 753 751 751 750 748 749 750 750 750 751 753 756 757 759 763 762 762 763 762 760 761 763 764 763 766 766 767 770 769 766 766 767 766 765 763 762 764 765 763 761 760 759 758 758 761 767 770 768 768 767 764 763 767 773 777 781 783 783 785 790 792 793 795 796 789 784 793 795 782 779 778 767 763 765 760 758 760 757 756 756 754 755 756 756 757 758 759
754 751 746 746 746 747 749 749 748 749 749 750 750 750 754 758 759 760 761 761 760 760 764 766 765 764 763 763 768 770 768 768 768 767 766 766 766 765 764 763 765 764 762 761 761 762 764 766 765 767 768 765 764 768 772 773 773 774 777 779 783 788 791 790 784 775 775 788 783 769 774 775 758 757 764 758 757 760 756 756 756 756 757 757 757 758 758 757
752 751 747 744 744 745 746 744 746 749 749 750 750 749 751 754 755 754 756 761 763 760 760 764 763 761 761 761 765 770 770 768 767 766 766 766 766 766 764 762 766 767 763 762 764 764 764 763 763 767 769 767 767 770 771 773 774 774 775 777 778 782 783 779 774 769 771 778 773 764 768 764 752 755 759 753 753 758 758 758 758 757 758 758 758 758 756 755
751 751 748 746 745 746 746 744 745 749 749 750 751 748 747 749 750 750 751 756 761 760 758 758 757 757 760 761 764 766 764 762 761 762 766 767 767 767 765 763 765 767 766 765 766 766 765 766 767 768 769 767 766 770 773 775 776 775 776 776 776 777 778 775 772 770 773 776 770 767 770 761 749 752 756 752 753 757 757 757 756 754 755 757 758 757 754 753
749 748 748 749 748 746 746 746 746 748 750 749 748 745 745 746 746 748 748 748 751 754 755 753 753 756 759 762 764 761 757 757 757 757 761 764 764 763 764 765 766 768 768 768 769 768 768 771 772 772 773 768 764 772 778 776 777 780 777 772 771 773 776 776 773 771 770 770 769 774 774 758 745 749 753 751 753 756 754 753 753 752 752 754 755 752 749 751
748 748 748 751 752 747 745 745 745 746 745 743 742 741 742 743 743 745 749 748 745 746 747 748 750 756 760 762 760 752 749 752 752 752 756 759 760 761 763 764 764 767 770 772 774 773 772 775 776 776 777 769 763 772 778 778 782 780 766 757 759 766 771 771 769 766 763 765 770 772 764 748 742 750 753 750 751 754 752 748 747 749 750 752 751 747 745 748
Wind_Speed
13 10 9 9 8 7 6 5 5 4 5 5 6 7 8 9 9 9 9 9 8 8 9 9 9 8 7 6 5 5 4 3 3 2 3 4 5 6 7 7 5 5 5 5 4 2 2 3 3 3 1 1 1 0 1 1 2 4 3 3 1 1 0 2 3 4 5 5 5 6 5 7 4 1 1 2 5 3 3 3 3 7 7 6 11 20 28 27
12 10 9 10 9 8 6 5 5 4 4 6 6 7 8 8 8 8 8 8 8 8 9 9 9 8 7 6 6 5 4 3 2 4 6 6 6 7 7 7 5 5 5 5 3 1 2 5 5 3 3 2 1 2 1 1 2 3 3 3 2 3 0 3 1 2 3 7 7 6 6 5 5 5 3 2 2 2 5 2 3 6 5 7 13 20 24 26
11 10 9 10 9 8 6 5 5 4 4 5 6 7 7 8 8 8 8 8 9 9 9 9 9 9 7 6 5 4 2 1 1 4 7 8 8 8 8 8 6 5 6 5 2 2 3 7 6 3 4 0 1 2 2 2 1 2 3 3 3 5 2 5 3 2 1 8 8 5 4 3 4 5 3 4 5 4 5 4 3 3 4 6 9 16 21 23
12 10 9 10 9 8 6 5 4 3 3 4 6 7 7 8 8 8 8 8 9 9 9 9 9 8 7 6 4 3 1 3 1 3 5 9 9 8 9 9 6 5 6 5 4 4 5 8 4 3 3 0 2 2 2 1 1 1 3 4 5 3 2 4 3 3 2 7 9 5 5 4 4 4 3 6 5 3 6 7 8 9 10 11 9 13 19 20
13 10 9 9 9 8 7 5 4 3 2 3 5 6 6 6 7 7 8 8 9 9 9 9 9 8 7 5 3 2 3 3 1 1 3 7 7 8 9 8 6 6 5 4 5 3 5 6 3 3 3 1 0 3 1 3 2 2 1 4 3 2 3 4 3 5 4 5 6 6 5 3 3 3 4 8 6 5 7 8 11 11 11 15 13 14 16 16
14 11 9 9 9 8 7 5 4 3 3 3 4 5 4 5 7 7 7 7 8 9 9 9 8 7 6 4 3 3 3 2 2 1 3 5 7 9 9 7 6 5 4 3 3 2 3 3 3 2 1 1 2 3 2 2 3 3 1 1 3 3 4 2 2 5 4 7 6 4 2 1 4 2 3 6 7 7 6 7 9 8 12 19 17 15 14 13
14 12 10 10 9 8 7 6 5 4 3 3 4 4 4 5 6 7 7 7 8 9 9 8 8 7 5 4 4 2 2 2 2 3 4 7 8 8 8 6 5 5 5 3 2 2 1 0 0 2 2 1 3 4 2 1 5 5 1 1 3 4 4 1 0 2 5 7 2 2 2 2 5 3 1 3 7 7 6 5 7 7 13 19 15 13 14 15
14 13 12 10 9 8 7 6 5 5 4 4 5 4 3 4 5 6 7 7 8 8 8 8 7 6 6 6 4 3 1 3 4 6 6 8 8 8 7 5 5 5 3 2 3 2 2 1 3 3 1 2 4 3 2 4 4 3 2 2 2 3 2 1 2 3 4 4 1 4 2 2 5 4 1 6 9 7 7 4 8 10 13 14 12 13 12 13
15 15 13 11 10 8 7 7 5 5 4 4 5 4 3 4 5 6 7 7 8 8 8 7 6 6 7 5 4 3 2 4 8 7 6 7 8 8 7 6 5 3 2 4 3 1 2 1 2 2 2 3 4 3 3 5 1 2 4 4 4 3 2 2 3 2 1 1 3 4 2 5 2 3 2 8 10 7 6 6 8 10 10 10 10 12 12 11
16 15 14 12 11 10 9 8 7 6 4 5 4 3 3 4 5 5 6 7 7 8 7 6 6 6 7 3 4 2 3 6 10 8 8 8 8 7 6 6 5 1 1 2 2 4 2 2 2 3 3 1 3 2 3 5 2 2 5 5 6 5 3 3 2 2 1 1 2 4 3 5 2 1 3 8 9 6 7 6 7 9 9 10 9 10 13 13
15 15 14 13 12 11 10 10 10 8 6 5 4 4 4 5 5 5 6 7 7 8 7 6 6 6 6 4 4 3 3 7 10 9 8 8 8 7 6 6 4 3 3 3 4 3 2 1 3 1 1 1 2 2 2 3 2 3 7 5 3 4 1 1 3 3 1 1 2 5 1 4 3 1 6 8 6 4 9 8 7 8 8 9 9 9 10 12
16 15 14 13 12 12 10 10 11 9 7 6 6 5 6 6 6 6 7 7 7 7 6 5 6 6 5 3 2 4 5 8 9 8 8 7 7 7 6 5 3 4 3 4 4 3 3 2 4 3 1 2 3 2 1 2 3 4 7 5 0 2 1 3 3 3 2 0 4 4 3 6 1 6 10 7 3 4 8 8 7 8 7 7 8 7 7 12
16 15 14 14 13 12 11 11 11 9 8 8 7 7 7 8 7 6 7 7 7 6 6 5 6 6 4 1 2 3 6 10 10 8 8 8 8 7 7 5 3 3 3 4 5 4 4 3 5 5 2 4 3 1 1 2 3 2 3 5 2 4 4 6 2 2 3 0 3 3 1 7 6 10 11 6 4 5 7 8 7 7 7 7 7 6 7 11
17 16 15 15 13 12 12 12 10 9 9 8 7 8 9 8 7 7 7 7 6 6 6 6 6 5 3 0 1 2 7 11 11 10 9 9 9 9 7 5 4 3 2 5 5 5 4 2 5 5 2 4 3 1 3 4 3 2 1 2 3 2 4 7 1 5 4 1 1 6 2 7 8 11 11 5 7 8 7 7 6 6 6 6 7 7 8 10
17 16 15 15 14 12 12 12 11 9 9 8 7 8 8 7 6 6 6 6 6 7 7 7 7 5 2 1 1 4 9 10 10 10 9 8 9 8 6 7 7 6 5 6 6 5 4 3 4 4 1 1 3 4 3 3 3 3 2 3 2 3 4 6 1 6 5 2 2 6 2 6 8 9 9 4 6 9 7 7 6 7 7 7 7 8 8 9
16 15 15 14 13 12 13 12 11 10 9 8 7 7 6 5 4 5 7 7 8 8 7 6 7 5 3 1 2 6 7 6 9 10 9 8 7 7 8 9 7 6 6 5 5 4 4 5 3 2 2 2 4 5 4 4 4 3 3 2 3 3 2 4 3 2 5 2 0 2 2 4 5 6 7 5 3 7 7 7 7 8 8 8 7 8 8 8
15 15 15 14 13 13 13 12 12 11 10 8 7 6 5 6 6 7 8 9 10 9 6 3 5 4 1 2 3 3 4 6 10 11 9 8 8 10 9 6 4 4 4 3 3 3 4 4 1 1 2 3 3 5 5 2 3 4 1 2 4 3 3 2 3 3 4 5 2 2 3 6 7 7 8 7 3 6 7 8 9 8 8 8 8 8 8 8
15 15 15 14 12 12 12 12 12 11 10 8 7 7 8 9 9 9 10 11 10 7 3 2 3 3 2 2 3 3 6 9 11 11 10 9 10 10 5 2 3 3 4 4 3 3 3 3 2 2 3 3 1 5 4 3 4 3 3 2 3 1 3 3 3 3 4 4 2 2 4 9 12 11 10 10 6 7 8 9 9 9 9 9 8 8 7 8
15 15 14 13 12 11 12 13 12 11 10 9 9 10 10 9 8 7 7 7 6 4 2 3 4 3 3 5 4 4 9 11 10 9 9 8 8 7 3 3 4 4 4 2 2 1 2 3 4 3 1 2 3 5 6 7 7 7 5 5 3 1 2 4 3 2 4 3 4 5 6 9 10 11 10 11 9 7 9 9 8 9 9 9 8 8 8 9
15 14 13 13 13 11 11 13 12 11 11 11 12 11 8 6 5 2 1 1 3 3 2 5 6 3 1 2 5 10 12 9 5 6 8 7 7 6 3 3 5 5 2 3 1 0 4 4 1 4 5 6 7 7 7 6 6 7 5 4 3 2 2 4 2 3 2 2 5 7 7 9 9 11 11 11 10 8 9 9 9 10 9 9 9 9 9 10
16 13 12 14 14 12 12 13 12 12 13 13 12 6 3 5 4 2 2 3 6 3 2 3 5 3 2 6 11 11 8 4 2 2 7 7 6 6 2 2 5 2 2 4 3 2 5 4 4 7 8 8 7 7 6 4 5 6 5 4 3 0 2 4 2 3 2 1 5 4 5 11 10 10 11 9 9 11 12 11 11 11 9 8 9 10 10 9
16 14 12 14 15 13 13 12 12 13 14 12 8 3 2 4 6 7 6 1 6 3 4 3 4 3 2 8 12 7 4 4 2 1 6 6 4 4 2 3 5 3 2 4 4 4 4 2 8 8 7 5 2 4 7 5 5 5 4 5 2 2 2 3 3 3 2 1 4 4 5 12 12 9 11 11 11 13 12 10 11 10 9 10 10 10 10 9
15 14 14 15 15 14 13 12 12 13 13 11 7 4 2 4 7 9 6 3 2 2 2 3 3 3 2 3 8 5 4 5 3 4 7 6 3 3 5 5 5 4 2 4 5 4 2 5 9 7 5 6 4 4 8 6 4 4 4 5 1 3 1 2 4 4 2 1 3 5 5 10 12 8 10 12 12 13 12 10 10 9 10 12 11 9 9 10
14 15 15 15 15 13 12 12 11 13 14 11 7 5 4 5 7 8 3 3 2 2 1 3 3 4 4 3 7 6 3 3 4 5 9 8 5 3 4 5 5 4 3 6 7 6 4 6 4 4 5 7 5 3 7 5 1 1 3 5 3 3 3 3 2 3 3 4 3 5 6 7 7 6 8 7 5 9 11 10 11 11 11 11 9 8 9 10
15 16 15 16 15 13 12 11 11 13 12 7 6 6 5 4 5 6 3 3 1 2 1 3 1 4 7 5 7 7 2 1 1 4 11 11 6 3 3 3 4 4 6 7 7 5 6 6 2 7 4 5 7 3 3 6 1 4 2 5 6 5 4 2 3 4 5 5 3 3 4 6 6 5 8 6 3 6 6 6 11 12 9 9 8 9 9 9
16 16 17 16 14 15 12 7 11 13 8 4 6 7 6 4 4 6 4 4 1 2 2 3 2 6 9 6 5 4 2 1 2 3 10 9 3 3 3 2 2 4 7 5 4 2 3 1 4 7 5 6 7 2 3 6 5 1 4 4 6 6 6 4 5 4 1 4 3 2 1 6 7 6 10 9 7 8 7 7 11 10 8 8 8 9 9 8
17 16 17 15 15 17 9 4 12 14 5 4 8 8 6 4 4 4 4 5 3 3 5 2 0 7 10 6 7 6 3 4 2 3 5 4 1 3 3 4 2 3 3 4 1 2 2 3 5 5 5 6 5 2 4 6 7 3 5 2 5 7 5 4 6 3 3 3 5 1 3 4 6 7 11 12 10 10 9 10 12 9 8 8 8 9 9 8
18 17 17 16 18 16 5 6 16 11 2 4 9 9 6 5 4 3 5 2 2 2 4 2 1 6 6 5 7 5 3 5 5 1 1 3 1 4 3 5 5 5 3 6 4 5 2 5 5 5 5 3 4 4 5 8 7 5 5 4 6 7 6 5 6 2 1 2 5 4 2 2 7 7 6 6 7 9 10 13 13 10 9 8 8 9 8 7
19 20 18 17 18 11 3 10 15 8 4 8 9 10 8 5 3 4 4 2 1 1 2 2 3 4 4 5 3 2 2 2 3 3 1 3 1 3 3 5 5 7 3 5 6 4 1 5 6 6 5 5 4 2 3 6 5 4 2 6 6 5 5 5 5 2 3 2 5 5 5 2 6 6 2 2 3 8 10 10 10 9 9 8 7 7 5 4
20 22 19 18 18 10 5 10 10 8 8 6 9 13 9 4 3 5 3 3 2 1 1 2 3 4 8 8 2 2 3 2 1 2 2 1 2 5 2 1 4 5 0 5 4 2 2 1 2 3 3 5 5 2 2 4 6 5 5 7 7 6 5 4 3 4 3 4 6 8 9 4 4 5 4 4 4 8 7 6 7 8 7 6 5 4 5 5
24 23 21 20 19 12 6 6 9 11 9 7 12 13 7 3 3 5 5 3 1 2 2 2 2 5 13 13 6 3 4 2 1 5 3 1 2 3 1 1 4 4 2 3 2 4 5 2 0 0 1 4 6 5 5 4 5 7 5 5 4 4 5 5 5 4 1 5 7 7 6 4 5 6 3 5 6 5 7 6 6 7 5 4 5 5 5 5
24 25 24 23 20 14 6 4 9 11 9 12 13 7 5 3 1 4 4 2 1 3 5 4 4 7 11 10 7 5 5 3 3 5 5 4 4 4 4 5 4 3 1 4 1 3 3 2 2 1 1 3 7 5 4 6 5 5 5 6 4 2 3 3 3 0 3 6 6 4 1 3 7 6 5 7 8 6 7 7 6 6 5 5 6 6 5 5
17 23 27 25 21 17 9 4 9 10 11 15 9 4 5 4 5 6 4 2 2 3 5 5 5 8 9 7 5 5 4 3 4 4 3 5 5 6 4 4 7 4 2 5 4 2 2 5 1 2 2 2 6 6 3 1 0 4 5 6 4 3 1 3 3 2 4 5 5 2 1 3 5 4 7 9 8 7 6 6 7 7 7 7 7 6 6 5
9 17 25 27 23 19 13 6 7 10 13 12 5 4 5 5 6 7 6 4 1 2 3 5 8 9 8 6 5 6 4 1 6 5 3 5 5 6 5 5 6 3 4 4 4 5 4 5 3 6 3 4 7 6 7 6 4 5 5 6 6 5 5 5 4 3 5 4 4 3 1 3 2 3 7 7 7 7 6 6 7 6 5 4 4 5 5 6
5 11 19 24 24 21 17 10 8 11 11 7 4 4 7 7 5 6 6 4 1 2 4 6 9 8 6 2 3 8 4 2 6 5 4 6 6 6 6 6 8 5 5 5 2 3 5 6 6 4 2 9 10 5 6 7 2 3 3 5 4 6 5 3 3 6 4 2 3 2 4 5 4 6 8 6 8 8 6 7 6 7 7 3 3 5 5 5
5 8 10 15 20 21 19 14 10 11 8 5 5 6 7 7 4 4 5 4 3 4 7 6 5 5 5 2 3 7 3 3 6 4 3 4 4 6 7 6 9 10 8 7 2 2 4 4 4 0 0 6 8 5 5 4 3 2 3 4 5 5 7 3 3 0 3 2 4 2 6 6 3 7 9 8 11 10 6 7 6 8 8 5 6 7 5 5
5 6 6 8 16 21 20 16 12 11 5 4 7 8 5 5 2 2 2 2 5 8 8 5 2 4 6 3 4 7 3 2 5 5 3 3 2 5 7 4 7 12 11 7 3 3 5 2 4 2 2 4 1 3 1 1 4 6 4 6 3 2 3 3 1 2 2 4 5 2 7 7 2 5 5 1 7 9 7 8 8 9 7 6 8 8 6 6
3 4 4 8 15 17 17 17 16 11 4 3 8 7 2 3 1 3 1 0 5 7 6 4 3 4 6 5 4 6 5 4 5 6 4 4 4 7 10 5 5 13 13 7 3 3 5 3 4 1 3 4 3 3 1 4 1 5 5 4 4 2 1 2 2 2 1 3 5 3 5 5 6 7 3 2 6 8 9 9 8 10 9 8 8 8 7 5
1 1 2 7 13 14 16 18 15 8 3 4 9 7 1 2 0 4 2 2 2 3 4 5 3 3 5 6 5 4 5 6 8 6 4 5 5 6 11 9 6 12 14 10 6 3 3 4 4 2 1 2 3 2 6 3 2 1 1 1 2 3 4 3 3 4 4 4 5 4 3 4 6 7 6 8 11 11 11 10 9 11 10 8 7 8 7 6
2 1 1 6 13 16 18 17 9 4 3 4 6 3 1 1 1 3 4 4 3 1 2 3 3 5 5 5 5 5 5 5 8 7 4 6 5 4 9 10 6 8 12 12 7 2 2 4 4 2 3 0 2 4 8 9 5 3 3 4 2 1 2 2 2 3 4 4 3 4 6 7 5 5 8 11 12 12 12 10 9 10 9 8 7 7 7 6
2 1 1 7 17 21 18 11 4 2 3 1 2 1 1 2 2 2 4 6 3 0 1 1 2 5 6 5 5 5 5 4 6 6 3 5 6 4 6 10 8 7 8 8 7 4 3 3 4 2 1 3 6 6 6 10 10 8 7 8 8 6 5 3 4 2 2 3 5 3 8 10 5 5 7 9 9 10 9 9 8 8 7 8 7 7 7 6
1 1 2 10 22 24 14 4 1 3 2 1 2 2 2 1 2 2 2 4 3 0 1 1 1 2 4 6 6 6 6 5 6 6 4 7 10 7 6 9 11 11 10 8 10 8 4 4 4 3 3 5 6 5 2 6 6 3 4 6 6 6 6 6 6 4 1 3 4 3 5 9 3 4 6 6 7 8 8 9 8 6 6 6 7 7 6 6
1 1 1 12 25 22 9 2 3 3 2 2 3 2 2 2 1 1 1 0 2 1 0 1 1 1 1 2 4 7 8 6 7 9 6 7 10 8 6 7 10 11 9 7 7 5 3 3 3 1 2 3 4 5 4 1 2 3 4 3 4 4 4 5 5 4 3 5 5 3 6 9 4 1 3 2 1 1 4 6 7 5 5 7 7 6 5 5
1 1 2 10 25 19 6 3 5 4 3 3 3 3 3 1 2 3 3 3 2 2 1 0 1 1 1 1 2 5 6 5 7 10 7 6 6 4 2 6 10 9 7 6 7 6 4 4 4 3 1 3 3 3 4 3 1 3 4 4 6 7 6 4 2 3 2 7 8 6 8 9 4 4 3 4 5 3 1 3 4 3 3 4 3 2 3 2
0 1 3 4 14 13 4 2 3 4 6 6 5 6 6 2 4 7 5 3 2 2 1 1 1 3 1 2 4 1 2 2 4 7 6 6 4 2 3 2 8 10 7 6 8 7 5 5 6 6 7 7 6 5 4 3 2 2 5 8 10 11 11 7 3 3 6 9 8 7 10 10 3 4 5 5 5 3 5 5 3 2 3 3 2 3 5 5
1 1 1 1 2 4 3 2 2 2 6 7 5 5 8 5 3 5 6 3 3 4 3 3 0 2 0 1 2 2 1 1 2 2 4 4 3 2 2 2 3 6 4 5 9 6 3 4 8 10 11 12 11 8 6 7 7 7 10 11 12 12 13 10 5 6 11 10 7 9 13 15 11 3 1 3 3 4 6 6 6 5 5 5 5 5 6 4
1 1 2 2 1 2 3 2 3 3 4 7 5 4 9 8 2 3 6 5 5 6 4 3 3 3 4 5 3 2 3 2 1 1 2 3 2 3 2 3 3 2 2 3 6 5 4 4 9 12 14 14 10 7 8 12 12 14 15 13 12 12 13 13 11 13 14 8 9 13 12 15 18 10 7 9 6 5 7 6 6 6 5 5 5 6 7 6
1 1 2 2 1 2 4 4 6 5 4 5 4 4 8 10 6 5 5 4 3 6 5 3 6 10 10 9 6 4 3 2 0 1 1 1 1 3 3 2 3 5 3 2 1 3 5 6 8 10 13 14 8 5 8 13 12 13 15 16 15 15 16 17 19 20 16 10 12 16 12 16 21 12 9 12 9 6 8 7 6 5 5 6 7 8 9 8
1 1 3 1 2 2 2 2 7 7 7 6 4 3 6 10 11 8 5 3 3 6 8 6 9 13 13 10 7 6 5 4 3 4 3 0 0 1 1 0 1 4 4 4 2 1 4 4 5 7 9 12 9 6 7 9 7 6 9 12 14 16 19 21 22 22 18 13 15 18 15 19 19 7 8 11 8 5 6 5 5 6 6 7 8 8 9 9
2 0 1 1 1 1 2 1 5 6 6 6 5 5 6 8 11 8 5 7 5 5 9 12 12 12 12 11 9 9 11 9 7 6 5 3 1 1 2 2 0 3 4 3 2 2 2 3 1 4 5 10 9 6 6 6 5 2 5 6 9 13 17 19 18 16 14 13 16 18 16 17 13 4 6 8 5 2 5 7 8 9 9 7 7 8 10 10
3 1 1 1 1 2 2 0 3 4 5 6 7 7 7 8 9 7 4 8 9 7 10 15 14 8 8 11 11 13 14 12 12 11 8 7 5 3 2 2 2 3 3 2 2 3 0 1 2 3 4 9 7 6 6 4 4 2 8 10 12 12 10 12 12 12 13 15 15 14 13 15 11 4 3 7 5 4 9 11 10 10 8 6 7 10 11 9
7 5 1 1 2 1 3 2 3 4 4 6 8 7 7 7 6 6 3 4 9 10 11 14 13 6 6 11 16 19 17 14 14 12 8 8 6 4 4 3 3 3 1 1 2 2 2 2 1 2 4 10 7 7 7 4 2 5 12 15 17 12 6 6 9 13 15 12 10 10 12 15 11 3 4 9 8 7 11 11 11 9 7 6 9 11 11 8
Wind_Direction
208 213 193 179 176 177 193 197 186 183 186 183 173 175 179 177 179 182 188 194 200 203 201 203 204 208 208 211 231 241 258 257 243 229 219 210 198 185 172 176 186 195 198 200 203 228 303 320 268 196 125 359 69 114 6 3 59 59 80 100 238 228 139 283 233 187 148 155 183 192 159 131 158 177 138 57 56 91 98 82 70 36 39 86 120 139 147 154
203 213 194 179 178 175 191 203 195 196 190 187 179 179 182 181 183 185 191 195 201 205 204 206 206 209 210 217 232 244 273 276 277 263 240 232 201 179 175 180 189 198 201 197 211 302 351 311 266 171 85 15 320 25 30 332 75 99 111 101 216 199 63 314 250 149 130 153 176 194 174 146 170 167 140 145 171 136 115 123 78 64 50 89 122 139 149 157
204 214 195 179 179 173 188 206 202 207 195 190 188 185 186 185 188 189 194 198 203 207 207 208 208 210 212 219 235 256 284 31 344 262 232 224 206 188 181 187 196 203 204 197 229 283 278 292 270 165 82 22 271 50 72 344 73 147 105 92 241 196 140 340 13 15 205 154 156 192 179 152 176 150 141 166 166 166 167 182 131 139 182 154 149 150 156 163
205 216 200 180 179 175 184 201 206 207 194 197 195 195 195 190 193 197 199 200 204 209 210 210 208 209 213 221 235 245 124 71 336 239 201 204 198 189 185 191 201 204 210 216 243 267 285 301 299 131 88 265 298 62 122 270 149 116 108 153 233 172 113 319 339 355 352 140 150 163 126 130 176 145 148 147 136 219 226 204 187 193 186 171 174 166 166 170
204 211 201 184 181 178 182 196 210 207 195 207 202 203 200 197 202 202 203 204 205 209 211 210 209 207 211 220 217 192 104 76 270 228 186 197 186 184 185 191 200 204 208 221 241 264 290 303 356 70 68 155 335 63 207 232 132 69 104 166 222 130 116 286 314 1 10 110 116 111 113 153 158 134 158 146 150 225 232 211 200 199 178 170 175 172 173 176
203 206 206 208 197 181 186 202 212 212 214 223 215 212 203 202 206 205 208 207 207 211 212 210 208 204 206 207 195 175 127 126 236 178 184 181 169 175 176 182 185 190 194 205 249 292 289 310 37 82 93 130 172 145 211 241 102 102 209 54 18 96 126 252 328 357 32 88 92 113 146 132 107 145 204 161 184 213 213 190 187 203 178 166 165 165 173 183
205 210 218 229 215 189 188 205 213 216 226 236 223 212 207 208 205 207 209 209 212 213 213 211 205 203 192 170 159 123 120 200 203 151 163 152 156 167 166 178 170 175 190 193 272 281 226 348 37 177 113 90 188 166 176 102 78 103 161 17 48 82 106 193 157 22 59 90 138 138 108 116 131 168 283 217 224 217 213 174 139 152 153 152 155 167 181 187
209 216 223 233 226 202 190 200 217 220 229 242 226 208 211 213 205 208 207 210 214 212 215 210 201 198 178 164 138 78 33 214 155 140 145 140 149 152 149 162 158 174 193 223 262 237 177 193 234 193 109 242 173 139 127 82 54 90 148 180 115 88 113 171 98 61 60 83 97 78 86 217 171 158 190 242 243 227 211 161 116 120 133 147 162 177 186 190
212 217 223 232 233 222 210 208 215 217 234 242 219 205 215 218 208 207 207 211 213 214 217 203 200 193 177 170 112 95 240 177 144 138 135 137 143 142 139 142 153 179 262 261 259 130 148 171 243 194 174 219 130 100 95 92 41 198 151 151 124 121 167 139 85 70 77 45 64 79 313 289 203 175 241 244 238 219 176 136 131 130 139 163 173 182 188 191
214 216 222 229 231 233 233 236 231 217 234 235 210 206 215 217 210 204 205 209 212 214 212 197 196 181 176 163 95 132 223 154 147 142 132 137 142 144 143 147 157 120 340 246 76 73 126 166 255 221 171 154 92 79 81 108 188 186 127 121 124 145 183 136 132 216 149 22 94 113 261 291 307 246 262 257 246 200 156 152 157 147 159 180 183 190 193 193
214 215 220 226 227 233 239 251 244 220 224 224 207 215 217 215 208 203 203 203 210 211 206 194 186 172 163 129 118 182 202 155 154 143 137 144 146 149 143 154 162 91 76 100 87 85 126 200 285 259 130 62 73 48 53 115 148 123 110 93 112 139 204 113 144 210 142 48 162 123 278 299 7 302 233 246 257 175 163 179 176 168 183 190 192 198 195 203
212 213 218 224 227 233 239 251 245 222 219 211 205 217 215 215 208 203 201 198 208 205 195 184 180 175 142 91 154 195 182 161 155 141 137 141 142 142 131 142 151 91 80 115 116 116 110 18 21 77 165 117 99 60 87 143 101 100 102 94 338 51 343 237 179 198 140 79 216 124 355 308 268 235 244 241 234 151 161 183 189 190 202 198 204 204 201 213
211 213 217 221 227 232 238 247 236 218 214 203 209 220 211 212 208 201 197 196 203 193 182 173 171 173 139 83 224 187 176 162 150 140 128 125 125 123 121 127 128 93 85 128 133 121 106 28 61 109 152 103 116 225 131 85 72 89 93 101 97 26 314 252 206 154 131 102 238 121 359 284 257 249 262 248 180 145 159 190 200 203 213 210 213 213 217 220
210 214 215 219 225 228 238 242 223 208 210 207 214 217 209 207 201 197 190 189 191 175 170 159 158 163 134 236 244 159 170 156 150 146 130 128 120 112 115 116 114 110 107 121 121 109 93 37 74 96 71 96 133 173 66 37 52 90 56 56 93 104 284 282 207 146 143 310 27 95 165 266 276 271 279 259 175 157 182 211 218 220 224 221 220 220 226 223
210 213 214 218 222 228 239 231 207 203 205 202 213 214 208 203 196 191 177 169 165 161 161 153 156 148 99 309 322 135 154 154 157 154 138 137 128 116 118 115 106 103 110 114 107 91 75 69 78 82 41 39 85 87 63 20 14 67 92 325 338 147 259 304 288 160 160 264 49 98 186 269 278 276 293 298 150 153 192 226 238 239 236 231 231 227 228 229
210 211 212 217 220 229 237 217 197 202 199 197 212 208 191 179 170 162 159 152 147 150 143 145 168 151 111 216 123 131 156 171 170 161 149 145 138 128 123 116 105 101 109 106 96 84 65 66 71 110 124 71 82 92 68 34 347 1 113 226 270 154 228 301 303 214 151 140 278 150 215 269 276 274 300 320 137 155 195 229 238 238 240 235 231 228 226 230
208 208 210 213 219 229 229 207 192 195 196 199 199 179 148 131 130 136 141 138 138 142 124 121 171 159 80 108 121 156 185 180 173 171 163 148 142 138 128 113 105 105 96 75 65 60 45 49 62 173 80 65 98 94 73 46 300 311 70 215 245 175 172 236 282 275 123 114 221 229 230 250 267 279 293 297 229 178 205 232 237 235 238 237 232 231 226 221
205 206 208 210 217 223 211 194 190 192 192 188 165 139 126 118 116 121 129 130 121 111 85 41 130 153 255 185 168 186 169 163 169 173 163 147 147 148 140 113 114 93 61 36 19 37 39 29 54 74 31 13 73 93 109 200 201 203 199 202 267 238 177 204 244 237 144 124 220 224 248 254 266 278 282 280 251 209 222 232 238 240 237 240 238 233 227 220
202 202 205 208 212 209 194 186 188 189 182 163 144 129 116 105 100 111 130 134 118 105 178 204 141 148 217 196 175 127 137 148 156 165 159 146 152 156 142 109 97 78 72 48 4 32 79 43 51 95 144 239 198 144 166 197 168 161 175 157 157 176 250 241 249 238 146 137 237 226 239 253 261 271 274 275 265 233 235 239 243 247 243 243 243 240 232 224
199 197 201 204 202 197 185 184 186 181 168 153 146 131 116 113 90 87 181 213 209 182 179 188 163 144 116 140 132 116 122 129 133 166 163 151 148 141 116 66 54 46 82 141 156 256 89 81 125 184 196 209 210 188 176 179 142 126 118 105 131 138 297 278 262 296 95 127 247 232 242 258 256 263 263 265 273 263 249 246 244 243 243 243 242 245 237 231
194 194 200 197 194 191 182 181 183 177 166 158 157 146 146 159 128 159 202 286 260 237 82 132 129 113 117 132 141 134 120 92 46 161 166 160 139 135 144 47 74 42 259 157 137 12 69 103 218 218 202 199 215 199 159 129 94 93 108 83 11 329 266 275 249 300 16 85 265 270 279 271 257 256 262 264 269 264 249 243 246 244 242 243 242 244 241 242
192 193 195 191 188 188 182 181 182 177 170 166 176 203 217 160 142 156 147 164 257 219 123 122 81 61 94 134 156 151 93 84 51 275 184 162 124 147 167 82 115 188 243 118 91 30 52 193 238 232 202 162 174 156 122 99 88 84 104 101 6 277 246 305 331 334 15 104 271 312 313 282 271 254 254 253 247 253 250 240 244 244 245 248 242 243 246 254
194 191 186 187 186 183 180 179 180 179 175 176 190 206 165 135 142 152 134 108 220 210 147 151 109 110 89 142 190 172 97 134 160 238 203 160 129 168 146 121 150 169 137 131 129 110 104 245 242 225 174 119 76 83 94 80 76 87 103 115 238 273 193 284 312 312 294 230 283 319 316 284 284 275 257 251 242 251 259 254 251 241 236 245 245 242 242 246
190 190 184 184 180 177 175 172 178 185 182 181 196 190 138 126 149 161 140 82 175 227 227 188 147 156 165 172 187 170 134 150 150 196 194 163 144 159 149 153 157 144 171 170 145 147 205 255 231 155 130 117 110 79 89 100 21 337 133 140 199 248 187 197 284 316 327 344 338 340 328 290 291 295 275 275 268 258 260 261 261 252 240 247 259 254 238 237
183 186 184 179 175 171 164 166 181 185 182 188 207 190 149 126 146 163 137 62 195 293 329 212 194 183 177 149 165 174 149 127 108 188 182 170 153 140 167 174 147 169 202 173 136 158 235 268 139 130 112 95 116 131 137 140 143 311 237 182 185 177 151 118 23 28 18 339 321 28 352 294 302 304 277 291 312 271 267 257 252 256 253 250 259 257 245 241
176 180 179 173 171 164 155 177 189 172 167 204 210 187 173 152 137 153 116 51 283 267 142 176 169 180 177 151 159 148 103 211 316 152 160 167 170 117 156 194 110 184 197 164 139 173 229 326 85 129 131 98 106 140 209 148 120 269 258 215 173 132 101 78 54 54 62 269 267 90 122 270 299 292 265 268 270 268 282 273 254 256 259 247 246 250 247 245
174 175 176 171 168 165 162 186 171 160 158 213 199 185 188 180 152 145 85 43 290 205 146 178 244 170 172 171 164 133 159 202 76 85 138 152 216 66 128 193 128 183 193 117 154 233 152 92 73 98 104 105 119 167 214 145 122 222 259 175 127 102 98 106 86 93 212 261 304 339 157 254 288 263 251 254 259 273 279 269 262 259 256 250 245 245 244 236
182 178 178 178 175 171 172 158 159 161 159 163 175 180 180 176 167 118 87 85 254 148 138 203 169 155 155 159 154 125 176 173 120 219 337 97 154 51 109 192 167 188 193 115 184 257 147 150 164 140 114 136 173 217 213 142 120 240 242 121 110 107 116 111 93 100 298 3 312 291 156 245 271 258 261 252 248 266 262 253 256 259 257 252 246 247 248 233
188 185 186 181 178 178 174 167 168 169 147 132 153 172 168 166 154 83 91 151 207 110 131 151 138 151 137 128 138 107 96 93 127 219 356 84 72 46 145 197 163 177 201 114 170 247 132 177 185 145 141 186 194 258 222 146 141 219 173 82 66 72 75 74 90 83 25 356 263 226 175 230 270 250 227 115 220 245 249 252 254 255 260 259 247 238 226 203
194 192 191 180 183 201 198 182 182 174 165 139 146 161 154 141 112 105 156 208 178 129 66 138 157 162 145 140 168 176 114 47 47 118 62 96 17 26 132 176 94 140 327 51 109 255 333 226 181 120 158 182 152 79 44 137 139 129 88 61 44 29 33 39 60 72 48 291 255 209 188 202 285 263 201 171 210 219 221 250 263 266 276 265 239 209 174 156
202 198 192 184 187 192 178 191 184 168 172 156 145 149 133 67 78 138 186 214 133 128 119 156 180 153 156 160 170 164 108 64 138 131 122 143 56 34 81 70 55 70 17 33 52 325 345 9 240 286 181 132 102 63 20 29 89 93 79 79 60 353 11 15 1 45 107 258 262 237 200 185 247 271 258 249 262 230 195 204 233 252 269 241 221 215 189 167
203 203 197 192 192 186 178 201 174 158 158 156 147 131 96 88 178 201 199 172 157 189 172 172 189 169 164 158 152 151 128 123 177 153 146 149 160 177 174 179 156 97 237 207 198 324 325 266 232 345 309 133 108 79 19 1 31 79 100 100 92 330 8 356 309 324 219 247 261 265 224 211 243 256 257 265 278 254 210 202 203 199 198 211 226 229 210 185
198 202 199 198 200 197 201 190 162 157 154 154 144 70 85 135 205 217 210 188 184 183 155 148 154 154 150 145 156 157 122 141 181 163 149 144 164 203 230 220 184 153 180 184 158 164 280 303 308 101 306 209 142 139 147 268 125 133 140 131 138 146 140 248 258 279 262 263 277 286 190 250 281 277 240 241 250 246 235 228 213 192 192 208 218 216 209 200
189 193 195 200 204 204 207 188 158 164 160 152 128 86 134 182 212 208 212 223 181 86 99 126 129 137 153 161 175 163 116 155 175 145 131 140 155 205 234 244 210 141 107 151 166 170 199 285 220 174 211 190 179 180 159 149 161 180 156 135 158 167 167 203 206 213 246 279 299 295 224 207 225 273 250 242 261 281 289 265 243 238 238 226 216 210 203 205
186 188 192 201 206 209 209 198 172 171 166 143 117 146 177 201 211 202 203 203 144 56 75 111 120 136 175 184 180 178 153 171 181 147 146 169 178 194 195 207 201 166 132 166 207 167 185 254 234 199 176 169 182 195 144 121 121 225 138 117 189 193 155 161 197 182 181 311 298 247 230 213 206 268 273 272 284 286 296 303 296 278 280 308 277 237 209 208
171 187 197 202 208 214 210 202 187 179 166 116 137 187 203 204 197 186 186 170 157 127 108 110 106 129 177 179 195 201 165 116 167 161 179 196 203 194 192 205 195 186 178 174 190 157 165 269 272 62 139 180 179 175 156 154 176 182 155 174 206 175 132 140 253 204 97 260 270 208 248 279 320 283 264 246 261 274 300 312 293 269 277 295 275 253 223 212
162 180 202 210 213 214 208 204 189 173 147 108 173 202 206 207 198 138 163 156 152 140 125 139 153 142 170 178 194 201 180 108 161 173 190 200 238 201 198 227 196 192 197 183 198 189 150 243 289 124 197 248 211 129 73 350 139 139 187 203 169 86 99 120 219 342 45 251 270 216 238 269 288 267 285 255 255 276 290 275 262 268 275 264 261 263 247 225
153 173 217 229 217 210 204 197 179 159 123 133 199 215 192 210 229 69 37 126 141 142 142 165 161 144 171 182 190 188 172 161 177 187 183 186 240 205 183 203 202 198 203 182 195 230 150 196 293 55 193 277 2 115 228 328 113 149 190 193 122 123 228 114 155 208 183 240 275 257 241 252 221 227 286 319 262 266 265 253 249 256 252 241 252 266 266 248
118 138 255 231 212 205 198 185 165 145 115 162 203 219 200 225 317 67 41 353 90 136 167 186 166 146 181 175 160 166 175 176 175 182 179 180 233 217 180 188 205 201 198 176 183 227 137 188 260 337 231 291 19 151 198 229 328 43 110 130 103 141 176 168 167 172 169 205 255 267 260 251 224 198 187 225 242 243 244 242 235 238 239 233 239 252 264 258
147 109 303 210 195 193 183 168 148 126 131 167 206 219 33 317 339 64 60 45 36 90 176 201 174 156 181 179 158 165 181 176 171 182 197 185 214 246 193 185 188 192 188 181 187 187 111 200 226 317 340 186 180 215 193 175 171 169 159 179 196 111 115 172 197 149 148 174 209 264 272 262 240 179 177 206 226 228 227 227 227 233 234 230 232 240 254 257
143 122 260 182 178 174 163 151 139 138 137 165 231 220 359 321 317 357 48 61 58 18 108 177 196 166 166 175 178 174 163 163 175 185 208 198 204 243 210 184 170 155 155 174 197 194 190 199 167 151 270 202 220 244 205 184 184 178 180 191 191 171 143 175 243 235 128 166 176 198 269 268 233 185 197 207 222 227 216 207 221 235 235 233 234 235 241 248
115 127 181 172 171 164 150 140 117 120 143 195 163 154 183 239 302 322 20 61 75 283 37 40 260 188 157 171 182 168 155 168 188 186 204 214 207 217 215 185 167 155 149 175 202 195 161 113 130 178 214 213 240 277 218 197 210 212 206 195 184 180 163 168 215 228 143 223 201 146 261 270 247 173 199 209 224 224 202 193 203 222 230 233 240 243 241 241
145 215 201 175 173 162 143 179 159 118 193 191 130 139 167 179 231 273 260 74 100 148 71 29 333 14 75 167 168 163 167 180 194 195 206 220 216 220 214 179 163 159 160 177 197 190 134 110 147 211 320 331 318 334 2 35 197 234 239 185 150 187 179 156 184 182 162 221 211 158 245 263 292 244 181 173 224 160 153 174 174 179 210 222 233 241 235 240
214 290 332 177 175 170 162 196 176 163 181 147 133 175 177 201 233 203 204 211 177 137 116 286 331 44 62 48 104 176 192 191 201 205 202 208 225 241 198 176 171 167 173 185 183 179 186 182 152 137 287 319 336 333 330 336 211 216 230 193 177 188 171 140 157 155 195 225 198 190 240 248 288 333 356 20 9 31 119 193 173 167 224 226 222 248 259 308
327 299 325 203 183 184 190 175 161 173 173 160 164 176 172 195 229 216 215 216 198 174 165 240 356 52 67 19 30 13 205 141 192 214 209 206 235 329 19 195 186 184 198 195 173 166 180 186 164 165 200 220 223 218 214 205 179 206 225 206 195 187 176 176 187 177 223 232 197 194 242 244 256 2 8 7 356 311 275 286 302 336 348 344 338 322 331 355
82 153 279 296 234 216 203 152 146 168 171 172 176 176 177 185 208 208 208 216 213 203 216 238 186 57 266 270 344 329 297 82 126 209 229 220 237 295 343 351 175 184 194 168 160 149 145 199 195 191 205 215 218 217 174 143 155 200 219 209 199 194 185 180 180 198 218 230 219 219 238 250 250 227 228 285 299 270 276 307 316 312 329 331 320 318 328 323
157 181 185 173 321 266 229 212 200 190 171 173 176 176 183 187 165 169 197 208 197 187 203 232 205 203 217 217 232 250 245 253 90 85 257 235 254 296 330 40 51 6 4 152 165 143 124 212 210 203 218 225 219 206 168 159 178 201 209 205 199 196 187 185 200 216 215 216 237 234 226 248 254 231 216 251 257 261 274 280 281 285 301 313 315 315 313 301
194 203 208 171 142 215 228 216 198 200 192 178 178 173 179 186 185 179 193 206 187 175 186 218 210 212 217 212 213 221 218 247 287 199 250 288 310 334 356 36 14 347 6 94 147 123 143 212 214 201 226 235 221 192 179 181 191 201 204 205 201 193 190 197 212 221 214 201 236 241 214 231 251 235 204 233 233 225 250 255 262 285 308 308 306 305 301 293
190 283 289 335 106 196 257 169 171 194 201 188 196 188 177 189 197 192 168 154 197 198 193 207 210 210 217 212 202 214 211 203 219 209 188 121 235 123 87 161 336 354 33 67 13 80 157 215 212 184 223 240 228 206 189 188 192 209 214 209 202 199 199 204 213 221 220 213 232 244 234 238 251 227 185 226 227 201 225 249 272 279 275 276 283 287 284 275
156 118 282 347 47 211 317 75 155 185 198 196 214 209 193 199 199 194 168 162 188 198 194 215 218 202 208 209 199 218 220 210 222 214 162 142 217 190 176 196 196 9 26 56 353 336 192 221 149 128 210 245 232 196 171 158 149 211 253 231 213 211 210 215 220 221 225 227 232 243 252 256 254 185 175 231 235 230 270 270 270 272 268 263 262 259 257 255
228 337 76 37 346 195 217 308 155 179 191 199 215 206 202 211 196 184 190 188 192 185 186 212 219 198 199 206 203 221 224 213 221 220 178 162 192 198 186 190 138 56 18 34 24 5 195 209 36 89 202 243 226 159 145 125 108 241 266 248 228 217 207 217 225 219 219 226 230 238 251 257 249 167 186 257 248 253 272 267 262 266 262 252 251 253 254 252
228 295 339 71 344 210 182 168 178 198 194 200 217 208 199 210 181 165 205 223 208 205 198 205 208 189 186 202 208 219 220 211 220 227 195 174 191 186 176 194 171 140 102 66 47 19 95 107 55 121 196 244 234 141 125 110 96 243 243 235 230 222 190 194 222 228 224 219 224 230 236 252 259 207 223 269 269 256 262 264 260 255 236 226 241 252 258 257